Home   Weather   Unst   Past weeks
Flag for United Kingdom

Past Weather in Unst, Scotland, United Kingdom — Yesterday and Last 2 Weeks

Now
48 °F

Rain. Low clouds.


Feels Like: 38 °F
Forecast: N/A
Wind: 44 mph from Southwest

Location: Lerwick

Current Time: Mar 20, 2019 at 9:57:59 pm

Latest Report: Mar 20, 2019 at 9:00 pm


Visibility: 2 mi

Pressure: 29.83 "Hg

Humidity: 95%

Dew Point: 47 °F

Location of UnstLocation

Past Weather in Unst — Graph

°F

Unst Temperature Yesterday

Maximum temperature yesterday: 47 °F (at 6:00 pm)
Minimum temperature yesterday: 39 °F (at 12:00 am)
Average temperature yesterday: 44 °F

High & Low Weather Summary for the Past Weeks

 TemperatureHumidityPressure
High50 °F (Mar 20, 7:00 pm)99% (Mar 12, 3:00 am)30.10 "Hg (Mar 12, 3:00 am)
Low32 °F (Mar 8, 7:00 am)47% (Mar 18, 12:00 pm)28.73 "Hg (Mar 12, 10:00 pm)
Average40 °F79%29.37 "Hg
* Reported Mar 5 8:00 pm — Mar 20 8:00 pm, Unst. Weather by CustomWeather, © 2019

Note: Actual official high and low records may vary slightly from our data, if they occured in-between our weather recording intervals... More about our weather records

Advertising

Unst Weather History for the Previous 24 Hours

Scroll right to see more
 ConditionsComfort  
Time TempWeatherWind HumidityBarometerVisibility
8:00 pm
Wed, Mar 20
49 °FRain. Overcast.39 mph95%29.83 "Hg3 mi
7:00 pm50 °FRain. Overcast.40 mph90%29.84 "Hg4 mi
6:00 pm45 °FRain. Low clouds.28 mph97%29.88 "Hg1 mi
5:00 pm44 °FLight rain. Overcast.28 mph90%29.93 "Hg3 mi
4:00 pm46 °FLight rain. Overcast.20 mph78%29.98 "Hg5 mi
3:00 pm46 °FLight rain. Overcast.24 mph82%N/A5 mi
2:00 pm47 °FOvercast.28 mph81%N/A6 mi
1:00 pm47 °FOvercast.25 mph82%30.08 "Hg7 mi
12:00 pm47 °FOvercast.N/A82%30.09 "Hg8 mi
11:00 am46 °FLight rain. Overcast.18 mph80%30.09 "Hg6 mi
10:00 am46 °FOvercast.20 mph72%30.10 "Hg8 mi
9:00 am46 °FOvercast.22 mph75%30.08 "Hg7 mi
8:00 am45 °FPartly sunny.20 mph77%30.06 "Hg7 mi
7:00 am43 °FPartly sunny.20 mph85%30.03 "Hg6 mi
6:00 am43 °FPassing clouds.22 mph83%30.02 "Hg8 mi
5:00 am43 °FPassing clouds.29 mph83%30.00 "Hg6 mi
4:00 am43 °FQuite cool.24 mph82%29.98 "Hg6 mi
3:00 am43 °FPassing clouds.18 mph87%29.97 "Hg5 mi
2:00 am44 °FPassing clouds.23 mph82%29.95 "Hg6 mi
1:00 am43 °FPassing clouds.24 mph84%29.94 "Hg6 mi
12:00 am44 °FPassing clouds.23 mph84%29.94 "Hg5 mi
11:00 pm
Tue, Mar 19
44 °FPassing clouds.18 mph77%29.93 "Hg6 mi
10:00 pm44 °FPassing clouds.30 mph70%29.92 "Hg6 mi
9:00 pm45 °FPassing clouds.24 mph85%29.89 "Hg5 mi
Weather by CustomWeather, © 2019

See weather overview